Regional Weather Roundup
Issued by NWS San Diego, CA

Current Version | Previous Version | Text Only | Print | Product List | Glossary On
Versions: 1 2 3 4 5 6 7 8 9 10 11 12 13 14 15 16 17 18 19 20 21 22 23 24 25 26 27 28 29 30 31 32 33 34 35 36 37 38 39 40 41 42 43 44 45 46 47 48 49 50
000
ASUS46 KSGX 291011
RWRSGX

SAN DIEGO HOURLY WEATHER ROUNDUP
NATIONAL WEATHER SERVICE SAN DIEGO CA
300 AM PDT THU JUN 29 2017

NOTE: "FAIR" INDICATES FEW OR NO CLOUDS BELOW 12,000 FEET WITH NO
SIGNIFICANT WEATHER AND/OR OBSTRUCTIONS TO VISIBILITY.

CAZ042-043-060-061-PZZ750-775-291100-

GREATER SAN DIEGO AREA

CITY           SKY/WX    TMP DP  RH WIND       PRES   REMARKS
SAN DIEGO AP   CLOUDY    63  57  81 S6        29.92F
NATIONAL CITY    N/A     64  58  81 SW3       29.91F
CHULA VISTA      N/A     62  58  87 CALM      29.83S
IMPERIAL BEACH CLOUDY    62  56  80 SW6       29.91F
BROWN FIELD    CLOUDY    61  57  87 CALM      29.90F
MIRAMAR MCAS   CLOUDY    65  55  70 E3        29.90F
MONTGOMERY FLD CLOUDY    63  56  78 SE5       29.91F
GILLESPIE FLD  CLOUDY    63  57  82 SW3       29.91S

$$

NORTH SAN DIEGO COUNTY

CITY           SKY/WX    TMP DP  RH WIND       PRES   REMARKS
CAMP PENDLETON CLOUDY    63  58  83 CALM      29.90S
OCEANSIDE AP   CLOUDY    64  58  80 E3        29.90S
OCEANSIDE HBR    N/A     63  59  87 CALM      29.92F
VISTA            N/A     62  57  83 CALM      29.87F
CARLSBAD       CLOUDY    62  57  83 CALM      29.90S
DEL MAR          N/A     61  58  88 SW1       29.92F
LA JOLLA SCRIP   N/A     61  58  88 SW2       29.90F
FALLBROOK        N/A     61  60  97 CALM      29.93S
ESCONDIDO        N/A     61  57  86 SE1       29.91S
SAN MARCOS       N/A     60  56  84 CALM      29.92S
POWAY            N/A     60  55  83 CALM      29.91F

$$

EAST SAN DIEGO COUNTY

CITY           SKY/WX    TMP DP  RH WIND       PRES   REMARKS
RAMONA         FOG       52  52 100 CALM      29.91F VSB 1/4
SANTEE LAKES     N/A     62  57  86 CALM      29.89F
LA MESA          N/A     60  56  87 CALM      29.83F
JAMUL            N/A     57  55  93 CALM      29.89F
DESCANSO N       N/A     53  38  56 NE3       29.80F
MT. LAGUNA OBS   N/A     63   8  11 W3        29.66F
CAMPO            N/A     48  39  71 NE8       29.92F

$$

ORANGE COUNTY AND THE LOS ANGELES BASIN

CITY           SKY/WX    TMP DP  RH WIND       PRES   REMARKS
JOHN WAYNE AP  CLOUDY    63  56  78 SE7       29.90F
LAKE FOREST FR   N/A     59  53  81 CALM      29.79S
HUNTINGTON BCH   N/A     63  58  83 SE1       29.91F
LOS ALAMITOS   FAIR      62  55  78 SE5       29.90S
FULLERTON      CLOUDY    64  57  78 S3        29.89F HAZE
LONG BEACH     CLOUDY    64  55  72 SE7       29.90S
L.A. AP        CLOUDY    64  58  80 SE5       29.89F
L.A. DOWNTOWN  CLOUDY    66  58  75 CALM      29.89S HAZE

$$

THE INLAND EMPIRE

CITY           SKY/WX    TMP DP  RH WIND       PRES   REMARKS
CORONA         CLEAR     59  56  89 W5        29.91S
CHINO          CLEAR     59  55  87 SW5       29.91F FOG
ONTARIO        CLEAR     61  56  83 SW6       29.90F
SAN BERNARDINO FAIR      64  55  75 W5        29.91S
RIVERSIDE AP   CLEAR     60  57  89 CALM      29.90F
MORENO VALLEY    N/A     60  57  88 CALM      28.02F
MARCH ARB      CLEAR     57  55  95 CALM      29.90F
HORSETHIEF CYN   N/A     58  48  69 CALM      29.87F
PERRIS           N/A     59  57  93 SE2       29.90S
HEMET EAST       N/A     59  49  69 CALM      29.90S
FRENCH VALLEY  PTSUNNY   57  55  94 SE3       29.92S
TEMECULA         N/A     59  58  94 CALM      29.95F

$$

SAN BERNARDINO AND RIVERSIDE COUNTY MOUNTAINS

CITY           SKY/WX    TMP DP  RH WIND       PRES   REMARKS
BIG BEAR AP    CLEAR     43  25  49 CALM      30.15S
ANGELUS OAKS     N/A     57  25  29 CALM      29.71S
PINE COVE        N/A     62  24  23 NW3       29.76F

$$

SOUTHERN DESERT INCLUDING THE COACHELLA VALLEY

CITY           SKY/WX    TMP DP  RH WIND       PRES   REMARKS
PALM SPRINGS   CLEAR     79  45  29 CALM      29.71S
THOUSAND PALMS   N/A     82  45  26 W21       29.66R
PALM DESERT      N/A     76  51  41 CALM      27.34S
THERMAL        CLEAR     84  43  23 NW13G23   29.65S
BLYTHE         CLEAR     78  33  19 S3        29.70R
IMPERIAL AP    CLEAR     77  31  18 SW9       29.68S
YUMA AZ        CLEAR     81  64  56 SE8       29.70F

$$

UPPER DESERT

CITY           SKY/WX    TMP DP  RH WIND       PRES   REMARKS
VICTORVILLE AP CLEAR     68  36  30 CALM      29.91S
HESPERIA         N/A     64  46  51 W6        29.87F
PALMDALE       CLEAR     71  36  27 SW10      29.90F
LANCASTER      CLEAR     74  36  25 W22       29.88S
EDWARDS AFB    CLEAR     71  33  24 SW14      29.84S
DAGGETT        CLEAR     78  29  16 W13       29.81F
29 PALMS N     CLEAR     80  28  15 NW9       29.88S
NEEDLES        CLEAR     89  23   9 E7        29.71R

$$

REGIONAL REPORTS

CITY           SKY/WX    TMP DP  RH WIND       PRES   REMARKS
SANTA BARBARA  CLEAR     58  56  93 NE3       29.88S
SANDBERG       CLEAR     67  35  30 N8        30.04F
LAS VEGAS NV   CLEAR     86  25  11 SW6       29.76R
PHOENIX AZ     CLEAR     87  44  22 E6        29.76R
TIJUANA        CLOUDY    61  57  88 CALM      29.93
ENSENADA NW      N/A     62  32  32 CALM      29.88F

$$

OFFSHORE ISLANDS

CITY           SKY/WX    TMP DP  RH WIND       PRES   REMARKS
CATALINA ARPT  FOG       57  57 100 E5        29.92S VSB 1/4
SAN NICOLAS IS CLOUDY    54  32  43 W16       29.90F

$$

MARINE AND OFFSHORE BUOY REPORTS

STATION/POSITION SKY/WX   TEMP    WIND        PRES    VSBY  SWELL
                          AIR SEA DIR/SP/G                  HT/PER/DIR
                          (F)     (DEG/KT/KT) (MB)    (MI)  (FT/S/D)
TANNER BANKS               59 63  300/ 17/ 21 1013.0          3/150/17
S CLEMENTE BASIN              64  290/  8/ 10 1012.8F         5/300/ 8
SAN NICOLAS IS.               60                N/A           2/220/18
SO. S. ROSA ISLA           56 57  320/ 19/ 23 1012.5R         3/320/ 9
W. S. BARBARA CH           54 55  310/ 21/ 29 1011.9F         3/310/17
M. S. BARBARA CH           60 59   40/  8/ 10 1012.1F         3/250/ 7
S. MONICA BASIN            62 64   50/  4/  8 1011.9F         3/170/12
S PEDRO CHANNEL               66                N/A           2/170/12
CMP PENDLETON NS              67                N/A           2/230/17
OCEANSIDE OFFSHR              67                N/A           2/210/18
TORREY PINES OTR              67                N/A           2/210/18
SAN DIEGO BAY                 69              1013.0F
POINT LOMA SOUTH              65                N/A           2/210/17

$$




USA.gov is the U.S. government's official web portal to all federal, state and local government web resources and services.